Weather History for St. Petersburg, FL

Change the Weather History Date:

Monday, December 30, 2013

  Actual Average Record
Temperature  
Mean Temperature 63 °F -  
Max Temperature 64 °F 71 °F 83 °F (1990)
Min Temperature 62 °F 54 °F 37 °F (1961)
Degree Days  
Heating Degree Days 2    
Growing Degree Days 13 (Base 50)    
Moisture  
Dew Point 60 °F    
Average Humidity 88    
Maximum Humidity 100    
Minimum Humidity 70    
Precipitation  
Precipitation 0.00 in - - ()
Sea Level Pressure  
Sea Level Pressure 30.10 in    
Wind  
Wind Speed 6 mph (NNE)    
Max Wind Speed 10 mph    
Max Gust Speed -    
Visibility 10 miles    
Events      
Averages and records for this station are not official NWS values.
T = Trace of Precipitation, MM = Missing Value Source: NWS Daily Summary

Daily Weather History Graph

Daily Weather History Graph

Search for Another Location

Airport:

Trip Planner

Search our weather history database for the weather conditions in past years. The results will help you decide how hot, cold, wet, or windy it might be!

Date:

Astronomy

Dec. 30, 2013 Rise Set
Actual Time 7:20 AM EST 5:45 PM EST
Civil Twilight 6:55 AM EST 6:11 PM EST
Nautical Twilight 6:26 AM EST 6:40 PM EST
Astronomical Twilight 5:57 AM EST 7:09 PM EST
Moon 5:13 AM EST (12/30) 4:13 PM EST (12/30)
Length of Visible Light 11h 16m
Length of Day
10h 24m
Waning Crescent, 5% of the Moon is Illuminated
Dec 30
Waning Crescent
Jan 1
New
Jan 7
First Quarter
Jan 15
Full
Jan 24
Last Quarter

Hourly Weather History & Observations

Time (EST) Temp. Dew Point Humidity Pressure Visibility Wind Dir Wind Speed Gust Speed Precip Events Conditions
12:53 AM 64.0 °F 62.1 °F 93% 30.01 in 10.0 mi NNW 6.9 mph - N/A   Clear
1:53 AM 64.0 °F 62.1 °F 93% 30.01 in 10.0 mi North 4.6 mph - N/A   Clear
2:39 AM 63.0 °F 62.1 °F 97% 30.02 in 10.0 mi North 5.8 mph - N/A   Mostly Cloudy
2:49 AM 62.6 °F 62.6 °F 100% 30.02 in 10.0 mi North 6.9 mph - N/A   Scattered Clouds
2:53 AM 64.0 °F 62.1 °F 93% 30.02 in 10.0 mi North 6.9 mph - N/A   Partly Cloudy
3:16 AM 64.0 °F 62.1 °F 93% 30.03 in 10.0 mi North 4.6 mph - N/A   Mostly Cloudy
3:53 AM 64.0 °F 62.1 °F 93% 30.04 in 10.0 mi North 4.6 mph - N/A   Overcast
4:45 AM 64.0 °F 61.0 °F 90% 30.03 in 10.0 mi North 5.8 mph - N/A   Overcast
4:53 AM 64.0 °F 61.0 °F 90% 30.03 in 10.0 mi North 5.8 mph - N/A   Overcast
5:53 AM 64.0 °F 60.1 °F 87% 30.06 in 10.0 mi North 6.9 mph - N/A   Overcast
6:14 AM 63.0 °F 59.0 °F 87% 30.07 in 10.0 mi North 10.4 mph - N/A   Overcast
6:53 AM 63.0 °F 59.0 °F 87% 30.07 in 10.0 mi North 9.2 mph - N/A   Overcast
7:53 AM 62.1 °F 59.0 °F 90% 30.09 in 10.0 mi North 9.2 mph - N/A   Overcast
8:53 AM 62.1 °F 57.9 °F 86% 30.13 in 10.0 mi North 9.2 mph - N/A   Overcast
9:53 AM 62.1 °F 59.0 °F 90% 30.13 in 10.0 mi NE 9.2 mph - N/A   Overcast
10:53 AM 62.1 °F 59.0 °F 90% 30.16 in 10.0 mi North 6.9 mph - N/A   Overcast
11:53 AM 63.0 °F 57.9 °F 84% 30.16 in 10.0 mi North 6.9 mph - N/A   Overcast
12:49 PM 62.6 °F 57.2 °F 82% 30.12 in 10.0 mi NE 5.8 mph - N/A   Overcast
12:53 PM 63.0 °F 59.0 °F 87% 30.12 in 10.0 mi NNE 3.5 mph - N/A   Overcast
1:53 PM 62.1 °F 59.0 °F 90% 30.10 in 10.0 mi East 8.1 mph - N/A   Overcast
2:53 PM 63.0 °F 59.0 °F 87% 30.10 in 10.0 mi ENE 4.6 mph - N/A   Overcast
3:08 PM 63.0 °F 59.0 °F 87% 30.09 in 10.0 mi East 8.1 mph - N/A   Overcast
3:53 PM 64.0 °F 59.0 °F 84% 30.09 in 10.0 mi Calm Calm - N/A   Scattered Clouds
4:53 PM 64.0 °F 59.0 °F 84% 30.10 in 10.0 mi Calm Calm - N/A   Partly Cloudy
5:53 PM 64.0 °F 59.0 °F 84% 30.12 in 10.0 mi East 3.5 mph - N/A   Clear
6:20 PM 64.0 °F 60.1 °F 87% 30.13 in 10.0 mi East 6.9 mph - N/A   Mostly Cloudy
6:53 PM 64.0 °F 60.1 °F 87% 30.14 in 10.0 mi ESE 8.1 mph - N/A   Mostly Cloudy
7:01 PM 64.0 °F 60.1 °F 87% 30.14 in 10.0 mi East 6.9 mph - N/A   Scattered Clouds
7:53 PM 64.0 °F 61.0 °F 90% 30.16 in 10.0 mi East 5.8 mph - N/A   Clear
8:53 PM 64.9 °F 61.0 °F 87% 30.18 in 10.0 mi ENE 5.8 mph - N/A   Clear
9:53 PM 64.0 °F 61.0 °F 90% 30.19 in 7.0 mi North 3.5 mph - N/A   Clear
10:53 PM 64.9 °F 55.0 °F 70% 30.19 in 10.0 mi NE 9.2 mph - N/A   Clear
11:53 PM 64.9 °F 55.0 °F 70% 30.19 in 10.0 mi NE 9.2 mph - N/A   Clear